Change the Weather History Date:

Monday, March 24, 2014

  Actual Average (PAKU) Record (PAKU)
Temperature  
Mean Temperature -4 °F -  
Max Temperature 5 °F -6 °F 12 °F (1998)
Min Temperature -13 °F -15 °F -37 °F (1988)
Degree Days  
Heating Degree Days 69    
Moisture  
Dew Point -9 °F    
Average Humidity 84    
Maximum Humidity 91    
Minimum Humidity 72    
Precipitation  
Precipitation 0.00 in - - ()
Sea Level Pressure  
Sea Level Pressure 30.54 in    
Wind  
Wind Speed 6 mph (East)    
Max Wind Speed 12 mph    
Max Gust Speed -    
Visibility 10 miles    
Events      
Averages and records for this station are not official NWS values.
T = Trace of Precipitation, MM = Missing Value Source: NWS Daily Summary

Daily Weather History Graph

Daily Weather History Graph

Search for Another Location

Airport or City:

Trip Planner

Search our weather history database for the weather conditions in past years. The results will help you decide how hot, cold, wet, or windy it might be!

Date:

Astronomy

Mar. 24, 2014 Rise Set
Actual Time 7:42 AM AKDT 8:39 PM AKDT
Civil Twilight 6:39 AM AKDT 9:43 PM AKDT
Nautical Twilight 5:16 AM AKDT 11:08 PM AKDT
Astronomical Twilight 2:50 AM AKDT 1:37 AM AKDT
Moon 7:03 AM AKDT (3/24) 10:37 AM AKDT (3/24)
Length of Visible Light 15h 03m
Length of Day
12h 56m
Last Quarter, 41% of the Moon is Illuminated
Mar 24
Last Quarter
Mar 30
New
Apr 7
First Quarter
Apr 14
Full
Apr 21
Last Quarter

Hourly Weather History & Observations

Time (AKDT) Temp. Windchill Dew Point Humidity Pressure Visibility Wind Dir Wind Speed Gust Speed Precip Events Conditions
12:53 AM -9.0 °F -23.8 °F -11.0 °F 91% 30.58 in 10.0 mi SW 6.9 mph - N/A   Clear
1:53 AM -11.9 °F -28.7 °F -15.0 °F 86% 30.58 in 10.0 mi SSW 8.1 mph - N/A   Clear
2:53 AM -11.9 °F -23.8 °F -16.1 °F 82% 30.58 in 10.0 mi SW 4.6 mph - N/A   Clear
3:53 AM -11.9 °F -21.5 °F -16.1 °F 82% 30.58 in 10.0 mi SSW 3.5 mph - N/A   Clear
4:53 AM -9.9 °F - -13.0 °F 86% 30.58 in 10.0 mi Calm Calm - N/A   Clear
5:53 AM -13.0 °F - -15.0 °F 91% 30.57 in 10.0 mi Calm Calm - N/A   Clear
6:53 AM -11.9 °F -23.8 °F -15.0 °F 86% 30.57 in 10.0 mi SSE 4.6 mph - N/A   Clear
7:53 AM -9.9 °F -19.2 °F -11.9 °F 91% 30.57 in 10.0 mi SSE 3.5 mph - N/A   Clear
8:53 AM -6.0 °F -14.7 °F -8.0 °F 91% 30.57 in 10.0 mi SSE 3.5 mph - N/A   Clear
9:53 AM -5.1 °F -13.6 °F -8.0 °F 87% 30.57 in 10.0 mi ENE 3.5 mph - N/A   Clear
10:53 AM -4.0 °F - -8.0 °F 83% 30.56 in 10.0 mi Calm Calm - N/A   Clear
11:53 AM -2.0 °F - -9.0 °F 72% 30.56 in 10.0 mi Calm Calm - N/A   Clear
12:53 PM -2.0 °F -13.9 °F -9.0 °F 72% 30.56 in 10.0 mi North 5.8 mph - 0.00 in   Clear
1:53 PM 1.9 °F -7.6 °F -4.0 °F 76% 30.55 in 10.0 mi NE 4.6 mph - 0.00 in   Clear
2:53 PM 3.0 °F -12.5 °F -2.9 °F 76% 30.54 in 10.0 mi NE 10.4 mph - 0.00 in   Clear
3:53 PM 3.0 °F -11.5 °F -0.9 °F 84% 30.53 in 10.0 mi ENE 9.2 mph - 0.00 in   Clear
4:53 PM 5.0 °F -9.1 °F -0.0 °F 80% 30.52 in 10.0 mi East 9.2 mph - 0.00 in   Clear
5:53 PM 3.0 °F -12.5 °F -0.9 °F 84% 30.51 in 10.0 mi East 10.4 mph - 0.00 in   Clear
6:53 PM 3.9 °F -9.4 °F -2.0 °F 76% 30.50 in 10.0 mi ENE 8.1 mph - 0.00 in   Clear
7:53 PM -0.0 °F -15.3 °F -5.1 °F 79% 30.48 in 10.0 mi ENE 9.2 mph - 0.00 in   Clear
8:53 PM -6.0 °F -22.6 °F -9.0 °F 87% 30.47 in 10.0 mi NE 9.2 mph - N/A   Clear
9:53 PM -7.1 °F -25.9 °F -9.9 °F 87% 30.46 in 10.0 mi ENE 11.5 mph - N/A   Clear
10:53 PM -7.1 °F -25.0 °F -9.9 °F 87% 30.45 in 10.0 mi ENE 10.4 mph - N/A   Clear
11:53 PM -9.0 °F -27.4 °F -11.0 °F 91% 30.44 in 10.0 mi ENE 10.4 mph - N/A   Clear